Welcome to the New NWS' Forecast!
Most changes are behind the scenes, but click here for differences you might notice.

Regional Weather Roundup (RWR)

Issued by Gray - Portland, ME (GYX)

                            
033 
ASUS41 KGYX 192105
RWRGYX
WEATHER ROUNDUP FOR MAINE AND NEW HAMPSHIRE
NATIONAL WEATHER SERVICE GRAY ME
500 PM EDT THU JUL 19 2018

MEZ002-005-006-010-012-015-018-020-021-024-026-027-029-192200-
MAINE
  
CITY           SKY/WX    TMP DP  RH WIND       PRES   REMARKS
PORTLAND       FAIR      75  49  39 S12       30.06S                  
SANFORD        FAIR      76  53  44 SE7       30.06S                  
BAR HARBOR     FAIR      72  53  51 SW13      30.04S                  
WISCASSET      FAIR      76  49  38 SW9       30.06S                  
ROCKLAND       FAIR      70  52  52 S8        30.06S                  
FRYEBURG       FAIR      82  49  31 VRB3      30.04F                  
LEWISTONAUBURN FAIR      79  49  34 SW7       30.04F                  
AUGUSTA        FAIR      79  49  34 W6        30.04F                  
WATERVILLE     FAIR      79  51  37 VRB3      30.01F                  
BANGOR         FAIR      80  51  36 SW9       30.02F                  
GREENVILLE       N/A     74  48  39 VRB6      30.04S                  
MILLINOCKET    FAIR      79  48  33 VRB5      30.02F                  
HOULTON        FAIR      76  49  38 SW7       29.99S                  
PRESQUE ISLE   FAIR      78  46  32 SW8       29.99                   
FRENCHVILLE    FAIR      78  46  32 SW8G20    29.98S                  
CARIBOU        FAIR      79  44  28 SW9       29.97F                  
$$

NHZ002-005-008-009-011-012-014-192200-
NEW HAMPSHIRE
  
CITY           SKY/WX    TMP DP  RH WIND       PRES   REMARKS
PORTSMOUTH     SUNNY     75  49  39 SE10      30.05S                  
ROCHESTER      FAIR      79  56  45 SE7       30.05F                  
NASHUA         FAIR      81  52  36 NW8       30.05F                  
MANCHESTER     FAIR      81  47  30 CALM      30.04S                  
CONCORD        FAIR      83  48  29 N6        30.05S                  
LACONIA        FAIR      80  48  32 VRB6      30.06F                  
PLYMOUTH       FAIR      80  49  34 W6        30.06S                  
BERLIN         FAIR      78  49  35 NW5       30.07F                  
WHITEFIELD     FAIR      77  48  35 VRB5      30.08S                  
JAFFREY        FAIR      78  47  33 W5        30.10S                  
KEENE          FAIR      84  51  31 SW7       30.07S                  
LEBANON        FAIR      82  51  34 W6        30.06F                  
MT WASHINGTON  MOSUNNY   54  39  58 W9G20       N/A                   
$$

VTZ005-007-008-192200-
VERMONT
  
CITY           SKY/WX    TMP DP  RH WIND       PRES   REMARKS
ST JOHNSBURY     N/A     79  49  34 MISG      30.04F                  
MONTPELIER     FAIR      77  47  34 N5        30.12F                  
BURLINGTON     FAIR      83  47  28 W5        30.04F                  
$$

MAZ007-012-024-CTZ003-RIZ002-NYZ038-NYZ072-192200-
SOUTHERN NEW ENGLAND AND NY
  
CITY           SKY/WX    TMP DP  RH WIND       PRES   REMARKS
WORCESTER      SUNNY     75  48  38 W7        30.10S                  
NANTUCKET      FAIR      76  55  48 N7        30.08S                  
PROVIDENCE     FAIR      81  51  35 S12       30.07S                  
HARTFORD       FAIR      82  51  34 E7        30.06F                  
ALBANY         FAIR      83  48  29 VRB5      30.07F                  
NEW YORK CITY  FAIR      82  51  34 SE10      30.07S                  
$$

ANZ081-ANZ082-ANZ150-NHZ014-MEZ023>029-192200-
COASTAL MARINE OBSERVATIONS
  
STATION/POSITION TIME  TEMP    WIND        PRES    WAVE
                       AIR SEA DIR/SP/G            HT/PER
                 (UTC) (F)     (DEG/KT/KT) (MB)    (FT/S)
MOUNT DESERT ROC 2100   62     220/ 13/ 13 1018.0F
MATINICUS ROCK   2000   65     220/ 13/ 13 1018.0S
ISLE OF SHOALS   2000   68     160/ 13/ 14 1017.9S
JEFFREYS LEDGE   2036      70                N/A     2/ 9
$$

.............KEY..............
   WCI - WIND CHILL
   TC  - TEMPERATURE IN CELSIUS
   VSB - VISIBILITY IN MILES
   HX  - HEAT INDEX
   FAIR- INDICATES FEW OR NO CLOUDS BELOW 12,000 FT, WITH NO 
         SIGNIFICANT WEATHER AND/OR OBSTRUCTIONS TO VISIBILITY.